EW9824 Weather Reports


Display with metric or nautical units.
time (UTC)temp
F
wind
direction
speed
MPH
gust
MPH
rain 1hr
in
rain 24hr
in
rain mn
in
humidity
%
barometer
mb
20260506110034 46 177 2.0 6.0 0.00 0.00 0.00 96 1019.4
20260506104531 46 181 2.0 4.0 0.00 0.00 0.00 96 1019.2
20260506103033 46 187 3.0 4.0 0.00 0.00 0.00 96 1019.1
20260506101531 46 176 3.0 4.0 0.00 0.00 0.00 96 1019.0
20260506094609 46 180 2.0 4.0 0.00 0.00 0.00 95 1019.0
20260506093031 46 177 1.0 3.0 0.00 0.00 0.00 95 1019.0
20260506090031 47 179 2.0 4.0 0.00 0.00 0.00 94 1018.9
20260506083029 48 183 2.0 3.0 0.00 0.00 0.00 94 1018.7
20260506081539 48 180 2.0 4.0 0.00 0.00 0.00 93 1018.6
20260506073106 49 167 1.0 3.0 0.00 0.00 0.00 91 1018.3
20260506071531 50 168 2.0 4.0 0.00 0.00 0.00 90 1018.3
20260506070110 50 173 2.0 3.0 0.00 0.00 0.00 90 1018.2
20260506061537 51 175 2.0 4.0 0.00 0.00 0.00 88 1018.0
20260506044532 56 83 1.0 2.0 0.00 0.00 0.00 76 1017.4
20260506043030 58 71 1.0 3.0 0.00 0.00 0.00 73 1017.2
20260506041531 60 35 2.0 4.0 0.00 0.00 0.00 69 1017.1
20260506040107 61 22 4.0 7.0 0.00 0.00 0.00 68 1016.9
20260506034529 62 29 4.0 7.0 0.00 0.00 0.00 66 1016.6
20260506033030 63 20 3.0 9.0 0.00 0.00 0.00 64 1016.4
20260506031530 65 27 3.0 7.0 0.00 0.00 0.00 61 1016.2
20260506030031 66 6 4.0 7.0 0.00 0.00 0.00 59 1016.0
20260506024530 68 15 4.0 7.0 0.00 0.00 0.00 57 1015.8
20260506023029 69 24 3.0 6.0 0.00 0.00 0.00 55 1015.7
20260506021537 70 18 3.0 7.0 0.00 0.00 0.00 55 1015.7
20260506020031 71 32 6.0 10.0 0.00 0.00 0.00 54 1015.6
20260506013031 72 14 6.0 11.0 0.00 0.00 0.00 52 1015.4
20260506011529 73 360 5.0 10.0 0.00 0.00 0.00 51 1015.3
20260506010031 74 349 5.0 11.0 0.00 0.00 0.00 50 1015.2
20260506004533 75 348 5.0 9.0 0.00 0.00 0.00 49 1015.2
20260506003035 75 11 5.0 13.0 0.00 0.00 0.00 50 1015.2
20260506001542 75 18 7.0 12.0 0.00 0.00 0.00 50 1015.3
20260506000035 75 18 6.0 12.0 0.00 0.00 0.00 49 1015.4
20260505234529 75 20 5.0 11.0 0.00 0.00 0.00 50 1015.5
20260505233031 75 5 7.0 12.0 0.00 0.00 0.00 50 1015.5
20260505231531 76 11 6.0 12.0 0.00 0.00 0.00 50 1015.5
20260505230032 75 18 5.0 12.0 0.00 0.00 0.00 50 1015.6
20260505224532 75 15 6.0 11.0 0.00 0.00 0.00 51 1015.7
20260505223029 74 5 6.0 14.0 0.00 0.00 0.00 51 1015.8
20260505221531 74 11 7.0 13.0 0.00 0.00 0.00 51 1015.9
20260505220030 75 6 6.0 13.0 0.00 0.00 0.00 50 1016.0
20260505214532 75 3 5.0 10.0 0.00 0.00 0.00 50 1016.1
20260505213029 74 1 5.0 11.0 0.00 0.00 0.00 51 1016.1
20260505211530 74 11 6.0 12.0 0.00 0.00 0.00 52 1016.2
20260505210029 73 5 5.0 10.0 0.00 0.00 0.00 52 1016.3
20260505204608 73 7 4.0 9.0 0.00 0.00 0.00 52 1016.5
20260505203032 73 2 5.0 10.0 0.00 0.00 0.00 53 1016.5
20260505201603 72 349 5.0 10.0 0.00 0.00 0.00 54 1016.6
20260505200146 72 359 4.0 9.0 0.00 0.00 0.00 54 1016.7
20260505194602 72 17 5.0 11.0 0.00 0.00 0.00 53 1016.8
20260505191605 71 40 4.0 11.0 0.00 0.00 0.00 53 1016.8
20260505190029 70 32 3.0 7.0 0.00 0.00 0.00 54 1016.9
20260505184530 69 17 4.0 10.0 0.00 0.00 0.00 56 1017.0
20260505183029 69 43 6.0 11.0 0.00 0.00 0.00 56 1017.1
20260505180029 67 12 6.0 11.0 0.00 0.00 0.00 57 1017.0
20260505174604 66 353 4.0 11.0 0.00 0.00 0.00 59 1016.9
20260505173029 65 333 3.0 8.0 0.00 0.00 0.00 60 1016.9
20260505171532 65 341 4.0 9.0 0.00 0.00 0.00 62 1016.9
20260505170028 64 351 3.0 8.0 0.00 0.00 0.00 63 1016.9
20260505163030 63 16 4.0 9.0 0.00 0.00 0.00 67 1016.8
20260505161531 62 34 5.0 11.0 0.00 0.00 0.00 69 1016.9
20260505153029 59 31 4.0 8.0 0.00 0.00 0.00 78 1016.9
20260505151603 57 27 3.0 6.0 0.00 0.00 0.00 87 1016.8
20260505130104 48 168 2.0 4.0 0.00 0.00 0.00 95 1015.7
20260505123031 48 168 2.0 5.0 0.00 0.00 0.00 95 1015.7
20260505121529 48 185 1.0 4.0 0.00 0.00 0.00 95 1015.7
20260505114528 48 176 2.0 4.0 0.00 0.00 0.00 95 1015.6
20260505113033 48 200 1.0 4.0 0.00 0.00 0.00 95 1015.5
20260505111645 48 175 2.0 4.0 0.00 0.00 0.00 94 1015.5